COSMOS 2559 (707K)

Last updated on Fri Jul 11 2025 00:03:13 GMT+0000 (Coordinated Universal Time)

1 54031U 22130A 25191.30596207 -.00000061 00000+0 00000+0 0 9997 2 54031 64.4673 326.6060 0012481 179.3236 180.6764 2.13101650 21403
UTC large
Height (km)
Speed (km/s)
/
Latitude / Longitude
Inclination (degrees)
Orbital Period (minutes)
Azimuth
Elevation
Range (km)
Doppler Factor

Next 0 passes for location: London (51.5072 / 0.1276)

Sorry there are no passes over London.